Meteo Giornale » Osservazioni meteo Stati Uniti (USA) » Niagara Falls
ore: 14:53 - Osservazioni Meteo Niagara Falls
Lat. 43° 6' N Lon. 78° 56' W Alt. 180 metri s.l.m.
22 °C
Pioggia Foschia
Temp. 24 Ore
18 °C
22 °C
Ovest/Sud-Ovest
11.1 Km/h
Dew point 21 °C
Umidità 94 %
Visibilità 8 Km
Il sole sorge alle ore 06:39
Il sole tramonta alle ore 19:52
| Data e Ora | Cielo e Fenomeni | T °C | DP °C | Um. % | Pres. hPa | Vis. km | Vento km/h | |
|---|---|---|---|---|---|---|---|---|
| Oggi h: 14:53 | Pioggia Foschia | 22 | 21 | 94 | 1017 | 8 | O/SO 11.1 | |
| Oggi h: 13:53 | Pioggia | 22 | 21 | 94 | 1017 | 11 | SO 9.3 | |
| Oggi h: 12:53 | Coperto | 22 | 20 | 88 | 1017 | 13 | S/SO 14.8 | |
| Oggi h: 11:53 | Pioggia Foschia | 20 | 19 | 93 | 1018 | 5 | S 9.3 | |
| Oggi h: 11:26 | Foschia | 20 | 19 | 93 | 1018 | 10 | S/SE 7.4 | |
| Oggi h: 10:53 | Coperto | 19 | 19 | 100 | 1018 | 11 | S/SE 13 | |
| Oggi h: 10:43 | Foschia | 19 | 19 | 100 | 1017 | 8 | S/SE 11.1 | |
| Oggi h: 10:33 | Pioggia Foschia | 19 | 19 | 100 | 1017 | 6 | SE 14.8 | |
| Oggi h: 10:25 | Pioggia Foschia | 19 | 19 | 100 | 1017 | 5 | E/SE 13 | |
| Oggi h: 10:15 | Pioggia Foschia | 19 | 19 | 100 | 1017 | 2 | E/SE 14.8 | |
| Oggi h: 10:00 | Pioggia Foschia | 19 | 18 | 93 | 1018 | 2 | SE 11.1 | |
| Oggi h: 09:53 | Pioggia Foschia | 19 | 19 | 100 | 1018 | 5 | E/SE 11.1 | |
| Oggi h: 09:51 | Pioggia Foschia | 19 | 18 | 93 | 1018 | 5 | E/SE 11.1 | |
| Oggi h: 09:49 | Pioggia Foschia | 19 | 18 | 93 | 1018 | 3 | E/SE 11.1 | |
| Oggi h: 09:40 | Pioggia Foschia | 19 | 18 | 93 | 1018 | 2 | E/SE 11.1 | |
| Oggi h: 09:30 | Pioggia Foschia | 19 | 18 | 93 | 1018 | 2 | SE 9.3 | |
| Oggi h: 09:27 | Pioggia Foschia | 19 | 18 | 93 | 1018 | 3 | E/SE 11.1 | |
| Oggi h: 09:18 | Pioggia Foschia | 19 | 18 | 93 | 1018 | 2 | E 9.3 | |
| Oggi h: 09:11 | Pioggia Foschia | 19 | 18 | 93 | 1018 | 2 | E 14.8 | |
| Oggi h: 09:05 | Pioggia Foschia | 19 | 18 | 93 | 1018 | 2 | E 11.1 | |
| Oggi h: 08:53 | Pioggia Foschia | 19 | 18 | 93 | 1018 | 5 | E/NE 13 | |
| Oggi h: 08:49 | Pioggia Foschia | 19 | 18 | 93 | 1018 | 5 | E 13 | |
| Oggi h: 08:47 | Pioggia Foschia | 19 | 18 | 93 | 1018 | 3 | E 11.1 | |
| Oggi h: 08:42 | Pioggia Foschia | 19 | 18 | 93 | 1018 | 5 | E 13 | |
| Oggi h: 08:38 | Pioggia Foschia | 19 | 18 | 93 | 1018 | 8 | E/NE 13 | |
| Oggi h: 08:10 | Pioggia Foschia | 19 | 18 | 93 | 1018 | 8 | N 5.5 | |
| Oggi h: 07:53 | Coperto | 19 | 18 | 93 | 1018 | 13 | S 9.3 | |
| Oggi h: 07:35 | Coperto | 19 | 18 | 93 | 1017 | 11 | SE 13 | |
| Oggi h: 07:25 | Foschia | 19 | 18 | 93 | 1018 | 3 | SE 13 | |
| Oggi h: 06:53 | Foschia | 19 | 18 | 93 | 1018 | 3 | S/SE 13 | |
| Oggi h: 06:20 | Pioggia Foschia | 19 | 19 | 100 | 1018 | 5 | S 11.1 | |
| Oggi h: 06:11 | Pioggia Foschia | 19 | 18 | 93 | 1018 | 5 | S 11.1 | |
| Oggi h: 06:04 | Pioggia Foschia | 19 | 19 | 100 | 1018 | 2 | S 13 | |
| Oggi h: 05:53 | Foschia | 19 | 19 | 100 | 1018 | 5 | S 9.3 | |
| Oggi h: 05:33 | Coperto | 19 | 19 | 100 | 1018 | 11 | S/SO 7.4 | |
| Oggi h: 05:18 | Coperto | 19 | 19 | 100 | 1018 | 11 | S 7.4 | |
| Oggi h: 05:11 | Foschia | 19 | 19 | 100 | 1018 | 10 | N 5.5 | |
| Oggi h: 05:01 | Coperto | 19 | 19 | 100 | 1018 | 11 | N 5.5 | |
| Oggi h: 04:53 | Foschia | 19 | 19 | 100 | 1018 | 10 | N 5.5 | |
| Oggi h: 04:17 | Coperto | 19 | 19 | 100 | 1018 | 11 | N 5.5 | |
| Oggi h: 03:53 | Pioggia Foschia | 19 | 19 | 100 | 1018 | 8 | S/SO 7.4 | |
| Oggi h: 03:51 | Pioggia Foschia | 19 | 19 | 100 | 1018 | 8 | S/SO 9.3 | |
| Oggi h: 03:34 | Coperto | 19 | 19 | 100 | 1019 | 11 | S/SO 9.3 | |
| Oggi h: 02:53 | Pioggia | 19 | 19 | 100 | 1019 | 11 | S/SO 7.4 | |
| Oggi h: 02:38 | Pioggia Foschia | 19 | 19 | 100 | 1019 | 5 | S/SO 11.1 | |
| Oggi h: 02:27 | Pioggia Foschia | 19 | 19 | 100 | 1019 | 5 | N 0 | |
| Oggi h: 01:53 | Foschia | 19 | 19 | 100 | 1019 | 10 | N 0 | |
| Oggi h: 00:53 | Coperto | 19 | 19 | 100 | 1019 | 11 | S/SO 11.1 | |
| Oggi h: 00:05 | Foschia | 19 | 19 | 100 | 1019 | 6 | N 0 | |
| Ieri h: 23:53 | Foschia | 19 | 19 | 100 | 1019 | 6 | N 5.5 | |
| Ieri h: 23:29 | Foschia | 19 | 19 | 100 | 1019 | 8 | N 5.5 | |
| Ieri h: 23:17 | Foschia | 19 | 19 | 100 | 1019 | 6 | SO 7.4 | |
| Ieri h: 22:53 | Coperto | 19 | 18 | 93 | 1019 | 11 | N 5.5 | |
| Ieri h: 22:17 | Foschia | 19 | 18 | 93 | 1019 | 6 | S/SO 14.8 | |
| Ieri h: 22:05 | Foschia | 19 | 18 | 93 | 1019 | 6 | S/SO 7.4 | |
| Ieri h: 21:53 | Foschia | 19 | 18 | 93 | 1020 | 6 | S/SO 13 | |
| Ieri h: 21:47 | Foschia | 19 | 18 | 93 | 1019 | 6 | S/SO 9.3 | |
| Ieri h: 20:53 | Coperto | 18 | 18 | 100 | 1019 | 13 | S 9.3 | |
| Ieri h: 19:53 | Coperto | 18 | 18 | 100 | 1019 | 14 | S 9.3 | |
| Ieri h: 18:53 | Coperto | 18 | 17 | 93 | 1019 | 14 | S/SO 9.3 | |
| Ieri h: 17:53 | Pioggia Foschia | 19 | 17 | 88 | 1019 | 5 | O/SO 11.1 | |
| Ieri h: 16:53 | Coperto | 19 | 17 | 88 | 1019 | 10 | O/SO 13 | |
| Ieri h: 15:53 | Coperto | 19 | 16 | 82 | 1019 | 10 | O/NO 9.3 | |



